Weather History for Guymon, OK

Change the Weather History Date:

Thursday, June 27, 2013

  Actual Average Record
Temperature  
Mean Temperature 90 °F 77 °F  
Max Temperature 109 °F 91 °F 109 °F (2012)
Min Temperature 71 °F 63 °F 51 °F (2003)
Degree Days  
Heating Degree Days 0 0  
Month to date heating degree days 0 6  
Since 1 June heating degree days 0 6  
Since 1 July heating degree days 4311 4455  
Cooling Degree Days 25 12  
Month to date cooling degree days 389 242  
Year to date cooling degree days 593 350  
Since 1 June cooling degree days 389 242  
Growing Degree Days 40 (Base 50)    
Moisture  
Dew Point 58 °F    
Average Humidity 43    
Maximum Humidity 73    
Minimum Humidity 12    
Precipitation  
Precipitation 0.03 in 0.06 in 0.62 in (2004)
Month to date precipitation 2.80 2.80  
Year to date precipitation 5.15 9.05  
Snow  
Snow 0.00 in - - ()
Month to date snowfall T  
Since 1 June snowfall T  
Since 1 July snowfall 22.3  
Snow Depth 0.00 in    
Sea Level Pressure  
Sea Level Pressure 29.85 in    
Wind  
Wind Speed 7 mph (SSE)    
Max Wind Speed 22 mph    
Max Gust Speed 30 mph    
Visibility 10 miles    
Events Rain , Thunderstorm    
T = Trace of Precipitation, MM = Missing Value Source: NWS Daily Summary

Daily Weather History Graph

Daily Weather History Graph

Search for Another Location

Airport:

Trip Planner

Search our weather history database for the weather conditions in past years. The results will help you decide how hot, cold, wet, or windy it might be!

Date:

Astronomy

Jun. 27, 2013 Rise Set
Actual Time 6:29 AM CDT 9:08 PM CDT
Civil Twilight 5:58 AM CDT 9:39 PM CDT
Nautical Twilight 5:20 AM CDT 10:17 PM CDT
Astronomical Twilight 4:38 AM CDT 11:00 PM CDT
Moon No Moon Rise 11:24 AM CDT (6/27)
Length of Visible Light 15h 40m
Length of Day
14h 39m
Waning Gibbous, 76% of the Moon is Illuminated
Jun 27
Waning Gibbous
Jun 29
Last Quarter
Jul 8
New
Jul 15
First Quarter
Jul 22
Full

Hourly Weather History & Observations

Time (CDT) Temp. Heat Index Dew Point Humidity Pressure Visibility Wind Dir Wind Speed Gust Speed Precip Events Conditions
12:53 AM 80.1 °F 81.2 °F 62.1 °F 54% 29.80 in 10.0 mi Calm Calm - N/A   Clear
1:53 AM 79.0 °F - 61.0 °F 54% 29.81 in 10.0 mi Calm Calm - N/A   Clear
2:53 AM 77.0 °F - 62.1 °F 60% 29.81 in 10.0 mi SSE 3.5 mph - N/A   Clear
3:53 AM 78.1 °F - 63.0 °F 60% 29.82 in 10.0 mi ESE 4.6 mph - N/A   Clear
4:53 AM 75.9 °F - 62.1 °F 62% 29.82 in 10.0 mi SE 6.9 mph - N/A   Clear
5:53 AM 73.0 °F - 63.0 °F 71% 29.83 in 10.0 mi South 6.9 mph - N/A   Clear
6:53 AM 72.0 °F - 63.0 °F 73% 29.84 in 10.0 mi South 5.8 mph - N/A   Clear
7:53 AM 73.9 °F - 64.0 °F 71% 29.85 in 10.0 mi SSW 5.8 mph - N/A   Clear
8:53 AM 81.0 °F 82.7 °F 64.9 °F 58% 29.86 in 10.0 mi South 10.4 mph - N/A   Clear
9:53 AM 86.0 °F 87.6 °F 64.9 °F 49% 29.86 in 10.0 mi SSW 11.5 mph - N/A   Clear
10:53 AM 91.9 °F 92.9 °F 63.0 °F 38% 29.85 in 10.0 mi South 6.9 mph - N/A   Clear
11:53 AM 96.1 °F 96.9 °F 62.1 °F 32% 29.84 in 10.0 mi SSE 9.2 mph - N/A   Clear
12:53 PM 100.0 °F 101.2 °F 61.0 °F 28% 29.84 in 10.0 mi SSE 10.4 mph - N/A   Clear
1:53 PM 104.0 °F 102.9 °F 55.9 °F 20% 29.83 in 10.0 mi Variable 5.8 mph - N/A   Clear
2:53 PM 106.0 °F - 48.0 °F 14% 29.81 in 10.0 mi WSW 3.5 mph 19.6 mph N/A   Clear
3:53 PM 108.0 °F - 44.1 °F 12% 29.78 in 10.0 mi SSE 6.9 mph - N/A   Clear
4:53 PM 107.1 °F - 44.1 °F 12% 29.75 in 10.0 mi SW 5.8 mph - N/A   Clear
5:53 PM 107.1 °F - 44.1 °F 12% 29.75 in 10.0 mi West 5.8 mph - N/A   Clear
6:53 PM 89.1 °F 88.2 °F 59.0 °F 36% 29.78 in 8.0 mi NE 13.8 mph 24.2 mph 0.03 in Rain , Thunderstorm Light Rain
7:25 PM 89.6 °F 89.5 °F 60.8 °F 38% 29.97 in 10.0 mi East 6.9 mph - 0.00 in   Clear
7:33 PM 91.4 °F 89.1 °F 53.6 °F 28% 29.96 in 10.0 mi East 9.2 mph - 0.00 in Thunderstorm Clear
7:48 PM 89.6 °F - 51.8 °F 27% 29.96 in 10.0 mi East 13.8 mph - 0.00 in   Clear
7:53 PM 90.0 °F - 52.0 °F 27% 29.81 in 10.0 mi East 13.8 mph 21.9 mph 0.00 in   Clear
8:53 PM 86.0 °F 84.5 °F 55.0 °F 35% 29.87 in 10.0 mi SE 5.8 mph - N/A   Clear
9:53 PM 80.1 °F 80.9 °F 60.1 °F 50% 29.93 in 10.0 mi SE 4.6 mph - N/A   Clear
10:53 PM 78.1 °F - 60.1 °F 54% 29.94 in 10.0 mi North 3.5 mph - N/A   Clear
11:53 PM 75.0 °F - 62.1 °F 64% 29.94 in 10.0 mi NNW 4.6 mph - N/A   Clear